EW8829 Weather Reports


Display with metric or nautical units.
time (UTC)temp
F
wind
direction
speed
MPH
gust
MPH
rain 1hr
in
rain 24hr
in
rain mn
in
humidity
%
barometer
mb
20260508095754 34 84 1.0 2.0 0.00 0.00 0.00 99 1010.2
20260508095252 34 84 2.0 2.0 0.00 0.00 0.00 99 1010.3
20260508094749 34 53 0.0 1.0 0.00 0.00 0.00 99 1010.4
20260508094246 33 42 0.0 2.0 0.00 0.00 0.00 99 1010.1
20260508093743 34 83 1.0 2.0 0.00 0.00 0.00 99 1010.5
20260508093240 34 109 2.0 2.0 0.00 0.00 0.00 99 1010.4
20260508092737 34 17 0.0 2.0 0.00 0.00 0.00 99 1010.2
20260508092235 34 45 1.0 2.0 0.00 0.00 0.00 99 1010.0
20260508091733 34 47 3.0 3.0 0.00 0.00 0.00 99 1010.0
20260508091230 35 55 2.0 3.0 0.00 0.00 0.00 99 1010.0
20260508090728 35 89 2.0 2.0 0.00 0.00 0.00 99 1010.0
20260508090225 35 38 0.0 1.0 0.00 0.00 0.00 99 1010.2
20260508085721 35 37 1.0 1.0 0.00 0.00 0.00 99 1009.8
20260508085218 35 92 2.0 2.0 0.00 0.00 0.00 99 1009.7
20260508084714 35 66 0.0 1.0 0.00 0.00 0.00 99 1009.6
20260508084212 35 343 0.0 2.0 0.00 0.00 0.00 99 1009.7
20260508083709 35 45 2.0 2.0 0.00 0.00 0.00 99 1009.4
20260508083207 36 68 2.0 2.0 0.00 0.00 0.00 99 1009.6
20260508082701 36 68 2.0 2.0 0.00 0.00 0.00 99 1009.7
20260508082159 37 36 1.0 2.0 0.00 0.00 0.00 99 1010.1
20260508081656 36 355 0.0 2.0 0.00 0.00 0.00 99 1009.8
20260508081153 36 47 2.0 2.0 0.00 0.00 0.00 98 1009.5
20260508080650 37 86 2.0 2.0 0.00 0.00 0.00 98 1009.6
20260508080148 37 98 2.0 3.0 0.00 0.00 0.00 98 1009.7
20260508075644 37 1 1.0 2.0 0.00 0.00 0.00 98 1009.5
20260508075141 38 337 1.0 2.0 0.00 0.00 0.00 98 1009.3
20260508074639 37 32 1.0 2.0 0.00 0.00 0.00 98 1009.1
20260508074136 38 51 2.0 3.0 0.00 0.00 0.00 98 1009.3
20260508073633 38 41 1.0 2.0 0.00 0.00 0.00 98 1009.4
20260508073131 38 76 2.0 2.0 0.00 0.00 0.00 97 1009.4
20260508072626 38 46 2.0 2.0 0.00 0.00 0.00 97 1009.5
20260508072124 39 39 0.0 4.0 0.00 0.00 0.00 97 1009.6
20260508071621 39 73 3.0 3.0 0.00 0.00 0.00 97 1009.4
20260508071119 39 38 3.0 3.0 0.00 0.00 0.00 97 1009.3
20260508070616 39 48 2.0 3.0 0.00 0.00 0.00 97 1009.5
20260508070115 39 68 3.0 3.0 0.00 0.00 0.00 97 1009.4
20260508065612 39 46 2.0 3.0 0.00 0.00 0.00 97 1009.3
20260508065110 39 86 2.0 2.0 0.00 0.00 0.00 97 1009.6
20260508064607 39 88 1.0 2.0 0.00 0.00 0.00 97 1009.5
20260508064105 39 84 2.0 2.0 0.00 0.00 0.00 97 1009.3
20260508063602 39 93 2.0 3.0 0.00 0.00 0.00 97 1009.4
20260508063100 39 109 2.0 2.0 0.00 0.00 0.00 97 1009.1
20260508062557 39 36 1.0 2.0 0.00 0.00 0.00 96 1009.6
20260508062054 39 103 3.0 3.0 0.00 0.00 0.00 96 1009.3
20260508061551 39 34 0.0 1.0 0.00 0.00 0.00 95 1009.1
20260508061048 39 328 1.0 2.0 0.00 0.00 0.00 95 1009.3
20260508060545 39 13 1.0 2.0 0.00 0.00 0.00 94 1009.3
20260508060043 40 75 3.0 4.0 0.00 0.00 0.00 93 1009.5
20260508055538 40 83 2.0 3.0 0.00 0.00 0.00 92 1009.4
20260508055035 40 39 2.0 3.0 0.00 0.00 0.00 92 1009.2
20260508054531 39 35 2.0 3.0 0.00 0.00 0.00 91 1009.2
20260508054029 39 70 2.0 3.0 0.00 0.00 0.00 90 1009.4
20260508053525 40 34 2.0 3.0 0.00 0.00 0.00 90 1009.2
20260508053024 40 83 3.0 3.0 0.00 0.00 0.00 89 1009.2
20260508052521 39 86 1.0 2.0 0.00 0.00 0.00 89 1009.4
20260508052017 39 65 0.0 2.0 0.00 0.00 0.00 88 1009.5
20260508051514 39 344 0.0 1.0 0.00 0.00 0.00 89 1009.5
20260508051009 40 355 1.0 1.0 0.00 0.00 0.00 90 1009.4
20260508050506 40 39 1.0 1.0 0.00 0.00 0.00 90 1009.5
20260508050003 40 84 2.0 2.0 0.00 0.00 0.00 89 1009.3
20260508045459 41 345 0.0 0.0 0.00 0.00 0.00 88 1009.5
20260508044957 41 25 0.0 0.0 0.00 0.00 0.00 88 1009.4
20260508044454 41 60 0.0 1.0 0.00 0.00 0.00 89 1009.5
20260508043949 41 84 2.0 2.0 0.00 0.00 0.00 88 1009.6
20260508043447 41 69 2.0 2.0 0.00 0.00 0.00 89 1009.6
20260508042943 41 64 2.0 2.0 0.00 0.00 0.00 88 1009.7
20260508042441 41 45 2.0 2.0 0.00 0.00 0.00 88 1009.6
20260508041937 41 45 2.0 2.0 0.00 0.00 0.00 88 1009.6
20260508041434 41 52 2.0 3.0 0.00 0.00 0.00 87 1009.7
20260508040931 41 48 2.0 2.0 0.00 0.00 0.00 87 1009.7
20260508040428 41 89 1.0 2.0 0.00 0.00 0.00 87 1009.7
20260508035926 41 105 2.0 2.0 0.00 0.00 0.00 86 1009.7
20260508035422 41 75 1.0 2.0 0.00 0.00 0.00 87 1009.8
20260508034919 41 94 2.0 2.0 0.00 0.00 0.00 87 1009.5
20260508034417 41 89 2.0 3.0 0.00 0.00 0.00 87 1009.5
20260508033913 41 96 3.0 3.0 0.00 0.00 0.00 87 1009.5
20260508033412 41 256 0.0 1.0 0.00 0.00 0.00 87 1009.5
20260508032909 40 101 2.0 2.0 0.00 0.00 0.00 87 1009.5
20260508032406 40 77 2.0 2.0 0.00 0.00 0.00 87 1009.3
20260508031902 40 75 2.0 3.0 0.00 0.00 0.00 87 1009.3
20260508031400 40 54 2.0 2.0 0.00 0.00 0.00 87 1009.0
20260508030855 40 92 2.0 2.0 0.00 0.00 0.00 87 1009.1
20260508030353 40 52 2.0 2.0 0.00 0.00 0.00 87 1008.9
20260508025850 40 83 2.0 2.0 0.00 0.00 0.00 87 1008.9
20260508025347 40 72 1.0 2.0 0.00 0.00 0.00 87 1009.0
20260508024843 40 56 2.0 2.0 0.00 0.00 0.00 86 1008.9
20260508024340 40 40 2.0 2.0 0.00 0.00 0.00 86 1008.9
20260508023837 40 71 2.0 3.0 0.00 0.00 0.00 85 1008.9
20260508023334 40 47 2.0 2.0 0.00 0.00 0.00 84 1009.0
20260508022830 41 31 0.0 1.0 0.00 0.00 0.00 84 1008.8
20260508022326 41 22 0.0 2.0 0.00 0.00 0.00 85 1008.6
20260508021824 41 84 1.0 2.0 0.00 0.00 0.00 84 1008.5
20260508021319 41 53 1.0 2.0 0.00 0.00 0.00 84 1008.5
20260508020816 41 32 1.0 2.0 0.00 0.00 0.00 85 1008.7
20260508020314 41 69 2.0 2.0 0.00 0.00 0.00 83 1008.5
20260508015810 41 56 1.0 2.0 0.00 0.00 0.00 83 1008.8
20260508015308 41 12 1.0 2.0 0.00 0.00 0.00 83 1008.8
20260508014804 41 45 1.0 2.0 0.00 0.00 0.00 82 1008.6
20260508014302 42 75 2.0 2.0 0.00 0.00 0.00 82 1008.6
20260508013757 42 9 1.0 2.0 0.00 0.00 0.00 81 1008.3
20260508013254 42 15 0.0 1.0 0.00 0.00 0.00 81 1008.4
20260508012751 42 340 1.0 2.0 0.00 0.00 0.00 81 1008.4
20260508012248 42 333 1.0 1.0 0.00 0.00 0.00 83 1008.3
20260508011746 43 65 1.0 2.0 0.00 0.00 0.00 82 1008.4
20260508011243 43 45 2.0 3.0 0.00 0.00 0.00 79 1008.1
20260508010740 44 74 3.0 3.0 0.00 0.00 0.00 77 1008.3
20260508010238 44 69 2.0 2.0 0.00 0.00 0.00 76 1008.4
20260508005735 45 51 2.0 2.0 0.00 0.00 0.00 75 1008.0
20260508005232 45 61 2.0 2.0 0.00 0.00 0.00 75 1008.0
20260508004727 45 47 2.0 2.0 0.00 0.00 0.00 72 1008.1
20260508004224 46 33 2.0 2.0 0.00 0.00 0.00 70 1008.1
20260508003720 46 85 2.0 2.0 0.00 0.00 0.00 70 1007.9
20260508003218 46 46 1.0 2.0 0.00 0.00 0.00 73 1007.8
20260508002714 46 52 2.0 2.0 0.00 0.00 0.00 68 1008.0
20260508002212 47 42 1.0 2.0 0.00 0.00 0.00 69 1007.8
20260508001707 47 304 0.0 2.0 0.00 0.00 0.00 70 1007.8
20260508001203 47 40 1.0 2.0 0.00 0.00 0.00 71 1007.6
20260508000659 47 351 1.0 2.0 0.00 0.00 0.00 66 1007.7
20260508000157 48 349 0.0 2.0 0.00 0.00 0.00 66 1007.4
20260507235653 48 46 1.0 2.0 0.00 0.00 0.00 62 1007.5
20260507235151 49 33 3.0 3.0 0.00 0.00 0.00 61 1007.7
20260507234648 49 36 2.0 2.0 0.00 0.00 0.00 60 1007.6
20260507234144 49 28 0.0 2.0 0.00 0.00 0.00 61 1007.2
20260507233641 49 50 2.0 3.0 0.00 0.00 0.00 60 1007.4
20260507233139 50 45 2.0 2.0 0.00 0.00 0.00 61 1007.7
20260507232635 51 25 2.0 2.0 0.00 0.00 0.00 56 1007.4
20260507232133 51 26 2.0 4.0 0.00 0.00 0.00 52 1007.5
20260507231629 51 25 3.0 3.0 0.00 0.00 0.00 53 1007.2
20260507231126 51 25 3.0 4.0 0.00 0.00 0.00 51 1007.4
20260507230622 52 18 3.0 4.0 0.00 0.00 0.00 52 1007.2
20260507230120 53 338 2.0 4.0 0.00 0.00 0.00 50 1007.5
20260507225614 53 24 4.0 6.0 0.00 0.00 0.00 50 1007.1
20260507225111 53 82 2.0 5.0 0.00 0.00 0.00 50 1007.1
20260507224607 53 25 3.0 5.0 0.00 0.00 0.00 49 1007.4
20260507224104 53 37 5.0 5.0 0.00 0.00 0.00 49 1007.1
20260507223600 54 47 6.0 6.0 0.00 0.00 0.00 50 1007.4
20260507223057 55 67 3.0 4.0 0.00 0.00 0.00 51 1007.5
20260507222554 55 350 1.0 4.0 0.00 0.00 0.00 49 1007.0
20260507222050 54 40 4.0 5.0 0.00 0.00 0.00 55 1007.1
20260507221547 54 50 2.0 4.0 0.00 0.00 0.00 52 1007.4
20260507221044 55 78 2.0 5.0 0.00 0.00 0.00 53 1007.1
20260507220541 55 77 5.0 6.0 0.00 0.00 0.00 52 1007.1
20260507220038 56 52 4.0 6.0 0.00 0.00 0.00 49 1007.2
20260507215534 56 77 4.0 5.0 0.00 0.00 0.00 52 1007.1
20260507215032 57 56 4.0 6.0 0.00 0.00 0.00 48 1007.2
20260507214530 57 49 4.0 5.0 0.00 0.00 0.00 50 1007.4
20260507214025 57 59 5.0 6.0 0.00 0.00 0.00 49 1007.5
20260507213521 58 25 4.0 4.0 0.00 0.00 0.00 49 1007.4
20260507213019 59 88 3.0 4.0 0.00 0.00 0.00 48 1007.2
20260507212514 56 8 4.0 6.0 0.00 0.00 0.00 45 1007.5
20260507212011 57 7 4.0 7.0 0.00 0.00 0.00 44 1007.2
20260507211508 57 20 5.0 5.0 0.00 0.00 0.00 47 1007.5
20260507211004 56 37 4.0 7.0 0.00 0.00 0.00 46 1007.4
20260507210501 55 3 7.0 8.0 0.00 0.00 0.00 48 1007.6
20260507205958 55 29 4.0 5.0 0.00 0.00 0.00 49 1007.4
20260507205455 58 29 2.0 5.0 0.00 0.00 0.00 43 1007.0
20260507204951 57 47 4.0 6.0 0.00 0.00 0.00 47 1007.4
20260507204448 55 13 5.0 5.0 0.00 0.00 0.00 48 1007.2
20260507203945 55 19 4.0 5.0 0.00 0.00 0.00 46 1007.6
20260507203443 56 16 4.0 5.0 0.00 0.00 0.00 47 1007.5
20260507202939 56 5 3.0 4.0 0.00 0.00 0.00 47 1007.6
20260507202436 55 67 5.0 6.0 0.00 0.00 0.00 48 1007.5
20260507201932 55 76 0.0 4.0 0.00 0.00 0.00 49 1007.4
20260507201432 55 69 4.0 5.0 0.00 0.00 0.00 49 1007.4
20260507200929 55 16 5.0 6.0 0.00 0.00 0.00 48 1007.5
20260507200425 55 3 6.0 6.0 0.00 0.00 0.00 48 1007.7
20260507195921 55 26 2.0 4.0 0.00 0.00 0.00 50 1007.4
20260507195419 56 4 5.0 6.0 0.00 0.00 0.00 46 1007.7
20260507194916 55 87 4.0 7.0 0.00 0.00 0.00 53 1007.6
20260507194412 56 63 3.0 9.0 0.00 0.00 0.00 46 1007.9
20260507193908 56 36 5.0 5.0 0.00 0.00 0.00 48 1007.9
20260507193406 55 26 6.0 6.0 0.00 0.00 0.00 48 1007.8
20260507192902 55 75 3.0 7.0 0.00 0.00 0.00 46 1007.7
20260507192358 57 74 8.0 9.0 0.00 0.00 0.00 42 1008.2
20260507191855 56 9 5.0 8.0 0.00 0.00 0.00 46 1007.8
20260507191351 55 62 4.0 8.0 0.00 0.00 0.00 46 1008.1
20260507190848 55 82 3.0 9.0 0.00 0.00 0.00 49 1007.9
20260507190346 57 102 5.0 8.0 0.00 0.00 0.00 44 1007.9
20260507185845 56 8 4.0 5.0 0.00 0.00 0.00 47 1008.0
20260507185342 56 11 4.0 5.0 0.00 0.00 0.00 47 1008.1
20260507184838 56 13 5.0 5.0 0.00 0.00 0.00 47 1008.2
20260507184336 54 70 4.0 6.0 0.00 0.00 0.00 49 1008.0
20260507183833 54 14 4.0 6.0 0.00 0.00 0.00 47 1008.1
20260507183330 55 25 3.0 6.0 0.00 0.00 0.00 45 1008.1
20260507182828 56 329 6.0 7.0 0.00 0.00 0.00 44 1008.1
20260507182323 55 5 3.0 6.0 0.00 0.00 0.00 49 1008.3
20260507181820 55 20 3.0 4.0 0.00 0.00 0.00 48 1008.5
20260507181316 55 35 3.0 6.0 0.00 0.00 0.00 45 1008.4
20260507180813 55 46 2.0 8.0 0.00 0.00 0.00 46 1008.3
20260507180310 54 140 4.0 7.0 0.00 0.00 0.00 48 1008.3
20260507175805 54 232 8.0 8.0 0.00 0.00 0.00 45 1008.4
20260507175306 54 37 3.0 4.0 0.00 0.00 0.00 51 1008.4
20260507174759 55 249 3.0 4.0 0.00 0.00 0.00 46 1008.5
20260507174257 54 17 2.0 5.0 0.00 0.00 0.00 49 1008.8
20260507173755 55 134 2.0 4.0 0.00 0.00 0.00 47 1008.6
20260507173252 55 12 4.0 5.0 0.00 0.00 0.00 52 1008.5
20260507172748 55 49 5.0 8.0 0.00 0.00 0.00 50 1009.0
20260507172245 53 277 6.0 7.0 0.00 0.00 0.00 48 1008.8
20260507171740 54 13 2.0 8.0 0.00 0.00 0.00 46 1009.1
20260507171238 55 13 4.0 5.0 0.00 0.00 0.00 46 1009.0
20260507170734 54 7 2.0 4.0 0.00 0.00 0.00 51 1009.1
20260507170231 55 91 3.0 5.0 0.00 0.00 0.00 54 1008.9
20260507165727 55 5 3.0 5.0 0.00 0.00 0.00 53 1009.0
20260507165223 52 18 3.0 5.0 0.00 0.00 0.00 53 1009.0
20260507164719 53 86 4.0 5.0 0.00 0.00 0.00 55 1008.9
20260507164217 52 19 2.0 5.0 0.00 0.00 0.00 51 1009.1
20260507163714 53 308 2.0 4.0 0.00 0.00 0.00 50 1009.0
20260507163212 54 344 3.0 9.0 0.00 0.00 0.00 49 1009.1
20260507162707 57 66 5.0 5.0 0.00 0.00 0.00 49 1009.0
20260507162203 54 70 4.0 5.0 0.00 0.00 0.00 52 1009.2
20260507161700 53 0 2.0 6.0 0.00 0.00 0.00 49 1009.4
20260507161156 52 0 2.0 4.0 0.00 0.00 0.00 50 1009.5
20260507160653 53 24 3.0 4.0 0.00 0.00 0.00 51 1009.1
20260507160150 52 293 2.0 9.0 0.00 0.00 0.00 51 1009.2
20260507155645 52 316 7.0 9.0 0.00 0.00 0.00 48 1009.3
20260507155142 53 30 6.0 6.0 0.00 0.00 0.00 47 1009.2
20260507154638 54 52 4.0 7.0 0.00 0.00 0.00 48 1009.3
20260507154136 54 243 3.0 8.0 0.00 0.00 0.00 49 1009.4
20260507153632 55 43 5.0 8.0 0.00 0.00 0.00 51 1009.8
20260507153129 54 21 3.0 6.0 0.00 0.00 0.00 52 1009.8
20260507152625 54 326 3.0 5.0 0.00 0.00 0.00 50 1009.6
20260507152121 53 102 0.0 4.0 0.00 0.00 0.00 54 1009.8
20260507151617 53 166 2.0 4.0 0.00 0.00 0.00 51 1009.8
20260507151115 52 262 4.0 9.0 0.00 0.00 0.00 51 1009.9
20260507150612 53 108 2.0 7.0 0.00 0.00 0.00 55 1009.8
20260507150108 52 174 2.0 16.0 0.00 0.00 0.00 52 1010.0
20260507145603 51 37 5.0 9.0 0.00 0.00 0.00 55 1010.0
20260507145056 52 100 2.0 6.0 0.00 0.00 0.00 51 1010.0
20260507144552 54 324 4.0 4.0 0.00 0.00 0.00 59 1010.1
20260507144050 51 111 3.0 11.0 0.00 0.00 0.00 55 1010.2
20260507143547 51 53 4.0 4.0 0.00 0.00 0.00 58 1010.4
20260507143044 51 77 5.0 8.0 0.00 0.00 0.00 62 1010.2
20260507142544 50 32 3.0 5.0 0.00 0.00 0.00 55 1010.3
20260507142042 50 48 0.0 5.0 0.00 0.00 0.00 54 1010.3
20260507141538 50 0 1.0 6.0 0.00 0.00 0.00 52 1010.5
20260507141035 51 258 8.0 8.0 0.00 0.00 0.00 55 1010.4
20260507140532 51 120 4.0 7.0 0.00 0.00 0.00 58 1010.2
20260507140029 50 154 2.0 4.0 0.00 0.00 0.00 57 1010.3
20260507135526 49 284 5.0 10.0 0.00 0.00 0.00 60 1010.3
20260507135023 50 71 4.0 6.0 0.00 0.00 0.00 67 1010.3
20260507134519 49 296 3.0 4.0 0.00 0.00 0.00 63 1010.7
20260507134015 47 294 4.0 10.0 0.00 0.00 0.00 62 1010.7
20260507133511 48 290 4.0 9.0 0.00 0.00 0.00 65 1010.5
20260507133010 48 245 1.0 4.0 0.00 0.00 0.00 62 1010.5
20260507132506 49 65 7.0 8.0 0.00 0.00 0.00 64 1010.6
20260507132002 48 70 6.0 6.0 0.00 0.00 0.00 64 1010.6
20260507131459 48 47 2.0 4.0 0.00 0.00 0.00 65 1010.7
20260507130956 48 284 5.0 5.0 0.00 0.00 0.00 65 1010.6
20260507130453 48 70 5.0 6.0 0.00 0.00 0.00 69 1010.7
20260507125952 47 290 2.0 4.0 0.00 0.00 0.00 66 1010.8
20260507125450 47 353 2.0 5.0 0.00 0.00 0.00 64 1010.5
20260507124947 47 76 2.0 4.0 0.00 0.00 0.00 67 1010.7
20260507124443 48 45 5.0 6.0 0.00 0.00 0.00 71 1010.9
20260507123941 46 76 2.0 4.0 0.00 0.00 0.00 71 1011.2
20260507123438 47 104 6.0 9.0 0.00 0.00 0.00 69 1011.1
20260507122935 46 71 0.0 3.0 0.00 0.00 0.00 78 1011.1
20260507122430 46 31 4.0 5.0 0.00 0.00 0.00 77 1011.1
20260507121926 45 31 2.0 3.0 0.00 0.00 0.00 84 1010.9
20260507121422 44 110 3.0 5.0 0.00 0.00 0.00 83 1010.9
20260507120919 44 106 4.0 5.0 0.00 0.00 0.00 84 1010.9
20260507120415 43 69 3.0 6.0 0.00 0.00 0.00 86 1011.2
20260507115911 43 76 4.0 4.0 0.00 0.00 0.00 88 1011.2
20260507115408 42 38 2.0 4.0 0.00 0.00 0.00 91 1011.1
20260507114903 41 80 2.0 4.0 0.00 0.00 0.00 93 1011.1
20260507114400 40 43 4.0 4.0 0.00 0.00 0.00 94 1010.9
20260507113857 40 112 2.0 4.0 0.00 0.00 0.00 95 1010.7
20260507113355 39 96 3.0 4.0 0.00 0.00 0.00 94 1010.9
20260507112852 40 89 3.0 4.0 0.00 0.00 0.00 93 1010.7
20260507112349 40 80 3.0 3.0 0.00 0.00 0.00 93 1011.1
20260507111847 40 70 3.0 3.0 0.00 0.00 0.00 95 1010.8
20260507111343 40 30 2.0 3.0 0.00 0.00 0.00 95 1010.6
20260507110839 39 80 2.0 4.0 0.00 0.00 0.00 98 1010.7
20260507110335 38 73 2.0 3.0 0.00 0.00 0.00 98 1010.7
20260507105833 37 76 0.0 1.0 0.00 0.00 0.00 98 1010.8
20260507105329 37 70 1.0 2.0 0.00 0.00 0.00 99 1010.7
20260507104826 37 78 2.0 2.0 0.00 0.00 0.00 99 1010.8
20260507104323 36 88 2.0 3.0 0.00 0.00 0.00 99 1010.6
20260507103819 35 92 2.0 3.0 0.00 0.00 0.00 99 1010.8
20260507103315 34 59 1.0 2.0 0.00 0.00 0.00 99 1010.5
20260507102812 34 56 1.0 2.0 0.00 0.00 0.00 99 1010.6
20260507102309 34 73 2.0 2.0 0.00 0.00 0.00 99 1010.5
20260507101805 34 89 2.0 3.0 0.00 0.00 0.00 99 1010.3
20260507101304 35 58 2.0 2.0 0.00 0.00 0.00 99 1010.2
20260507100802 34 9 0.0 2.0 0.00 0.00 0.00 99 1010.3
20260507100300 35 78 2.0 2.0 0.00 0.00 0.00 99 1010.1